Location: Newark
(48.8833°N, 0.9236°W)
Time: 04:55:48
(UTC+00:00)

S-56A Canister/Altair - Visible Passes

Search period start: 22 November 2019 00:00
Search period end: 02 December 2019 00:00
Orbit: 634 x 2498 km, 38.9° (Epoch: 20 November)

Date Brightness Start Highest point End Pass type
(mag) Time Alt. Az. Time Alt. Az. Time Alt. Az.
22 Nov 9.4 17:52:19 10° WSW 18:01:12 40° S 18:05:59 17° ESE visible
22 Nov 9.6 19:58:05 10° WSW 20:03:24 27° SW 20:03:24 27° SW visible
23 Nov 9.6 17:18:49 10° WSW 17:28:24 42° S 17:34:56 10° ESE visible
23 Nov 9.2 19:24:38 10° WSW 19:31:48 32° SSW 19:32:33 31° S visible
24 Nov 9.8 16:45:17 10° WSW 16:55:34 43° S 17:02:35 10° ESE visible
24 Nov 9.3 18:51:09 10° WSW 18:59:10 35° SSW 19:01:43 27° SSE visible
24 Nov 10.6 20:58:17 10° WSW 20:59:09 12° WSW 20:59:09 12° WSW visible
25 Nov 9.5 18:17:37 10° WSW 18:26:29 39° SSW 18:30:55 19° SE visible
25 Nov 10.2 20:24:26 10° WSW 20:28:20 17° SW 20:28:20 17° SW visible
26 Nov 9.6 17:44:01 10° WSW 17:53:43 42° SSW 18:00:09 11° SE visible
26 Nov 9.9 19:50:42 10° W 19:56:37 21° SW 19:57:36 21° SSW visible
27 Nov 9.8 17:10:23 10° WSW 17:20:54 45° S 17:28:02 10° ESE visible
27 Nov 9.8 19:17:02 10° W 19:24:03 25° SSW 19:26:53 20° S visible
28 Nov 10.0 16:36:43 10° WSW 16:47:59 47° S 16:55:39 10° ESE visible
28 Nov 10.0 18:43:20 10° W 18:51:26 29° SSW 18:56:15 14° SSE visible
29 Nov 10.1 18:09:38 10° W 18:18:44 34° SSW 18:25:10 10° SE visible
29 Nov 10.6 20:19:23 10° WSW 20:20:52 11° SW 20:22:16 10° SW visible
30 Nov 10.1 17:35:54 10° W 17:45:58 38° SSW 17:52:59 10° SE visible
30 Nov 10.6 19:44:14 10° WSW 19:48:22 14° SW 19:51:55 10° SSW visible
01 Dec 10.2 17:02:10 10° W 17:13:07 41° SSW 17:20:44 10° SE visible
01 Dec 10.6 19:09:58 10° W 19:15:50 18° SW 19:20:33 10° S visible
